Weather History for Charlottesville, VA

Change the Weather History Date:

Monday, April 9, 2012

  Actual Average Record
Temperature  
Mean Temperature 59 °F 54 °F  
Max Temperature 71 °F 66 °F 90 °F (1959)
Min Temperature 47 °F 42 °F 25 °F (1972)
Degree Days  
Heating Degree Days 6 12  
Month to date heating degree days 81 116  
Since 1 July heating degree days 3126 4120  
Cooling Degree Days 0 1  
Month to date cooling degree days 2 1  
Year to date cooling degree days 20 3  
Growing Degree Days 10 (Base 50)    
Moisture  
Dew Point 26 °F    
Average Humidity 34    
Maximum Humidity 50    
Minimum Humidity 18    
Precipitation  
Precipitation 0.00 in 0.12 in 0.64 in (2003)
Month to date precipitation T 1.04  
Year to date precipitation 8.65 10.17  
Sea Level Pressure  
Sea Level Pressure 29.87 in    
Wind  
Wind Speed 8 mph (WNW)    
Max Wind Speed 18 mph    
Max Gust Speed 30 mph    
Visibility 10 miles    
Events      
T = Trace of Precipitation, MM = Missing Value Source: NWS Daily Summary

Daily Weather History Graph

Daily Weather History Graph

Search for Another Location

Airport:

Trip Planner

Search our weather history database for the weather conditions in past years. The results will help you decide how hot, cold, wet, or windy it might be!

Date:

Astronomy

Apr. 09, 2012 Rise Set
Actual Time 6:46 AM EDT 7:44 PM EDT
Civil Twilight 6:19 AM EDT 8:11 PM EDT
Nautical Twilight 5:47 AM EDT 8:43 PM EDT
Astronomical Twilight 5:14 AM EDT 9:17 PM EDT
Moon 11:34 PM EDT (4/9) 8:35 AM EDT (4/9)
Length of Visible Light 13h 52m
Length of Day
12h 58m
Waning Gibbous, 88% of the Moon is Illuminated
Apr 9
Waning Gibbous
Apr 13
Last Quarter
Apr 21
New
Apr 29
First Quarter
May 5
Full

Hourly Weather History & Observations

Time (EDT) Temp. Dew Point Humidity Pressure Visibility Wind Dir Wind Speed Gust Speed Precip Events Conditions
12:53 AM 59.0 °F 23.0 °F 25% 29.94 in 10.0 mi Variable 6.9 mph - N/A   Clear
1:53 AM 59.0 °F 23.0 °F 25% 29.94 in 10.0 mi NW 12.7 mph 23.0 mph N/A   Clear
2:53 AM 57.9 °F 19.0 °F 22% 29.94 in 10.0 mi WNW 12.7 mph 24.2 mph N/A   Clear
3:53 AM 55.0 °F 17.1 °F 23% 29.96 in 10.0 mi Calm Calm - N/A   Clear
4:53 AM 48.9 °F 21.0 °F 33% 29.96 in 10.0 mi Calm Calm - N/A   Clear
5:53 AM 50.0 °F 19.0 °F 29% 29.96 in 10.0 mi Calm Calm - N/A   Clear
6:53 AM 48.9 °F 19.9 °F 32% 29.97 in 10.0 mi Calm Calm - N/A   Clear
7:53 AM 52.0 °F 23.0 °F 32% 29.97 in 10.0 mi WSW 9.2 mph - N/A   Clear
8:53 AM 57.0 °F 24.1 °F 28% 29.95 in 10.0 mi West 9.2 mph - N/A   Clear
9:53 AM 59.0 °F 23.0 °F 25% 29.94 in 10.0 mi SW 6.9 mph - N/A   Clear
10:53 AM 63.0 °F 23.0 °F 22% 29.92 in 10.0 mi Variable 4.6 mph - N/A   Clear
11:53 AM 66.0 °F 26.1 °F 22% 29.89 in 10.0 mi Variable 5.8 mph - N/A   Clear
12:53 PM 66.0 °F 26.1 °F 22% 29.86 in 10.0 mi Variable 6.9 mph - N/A   Overcast
1:53 PM 68.0 °F 27.0 °F 21% 29.82 in 10.0 mi Variable 4.6 mph - N/A   Overcast
2:53 PM 71.1 °F 27.0 °F 19% 29.79 in 10.0 mi WNW 8.1 mph 20.7 mph N/A   Mostly Cloudy
3:53 PM 69.1 °F 27.0 °F 21% 29.78 in 10.0 mi West 16.1 mph 27.6 mph N/A   Mostly Cloudy
4:53 PM 69.1 °F 27.0 °F 21% 29.77 in 10.0 mi WNW 18.4 mph 29.9 mph N/A   Mostly Cloudy
5:53 PM 69.1 °F 24.1 °F 18% 29.75 in 10.0 mi West 16.1 mph 25.3 mph N/A   Mostly Cloudy
6:53 PM 68.0 °F 27.0 °F 21% 29.75 in 10.0 mi WNW 13.8 mph 23.0 mph N/A   Scattered Clouds
7:53 PM 64.9 °F 27.0 °F 24% 29.75 in 10.0 mi West 9.2 mph - N/A   Overcast
8:53 PM 63.0 °F 30.9 °F 30% 29.81 in 10.0 mi NNW 13.8 mph 23.0 mph N/A   Clear
9:42 PM 62.6 °F 33.8 °F 34% 29.84 in 10.0 mi North 13.8 mph 20.7 mph N/A   Overcast
9:53 PM 61.0 °F 34.0 °F 36% 29.83 in 10.0 mi North 13.8 mph 20.7 mph N/A   Scattered Clouds
10:53 PM 59.0 °F 34.0 °F 39% 29.84 in 10.0 mi NNW 13.8 mph - N/A   Clear
11:53 PM 54.0 °F 35.1 °F 49% 29.86 in 10.0 mi Variable 4.6 mph - N/A   Clear